Flag for Belgium Weather past 2 weeks in Mechelen, Belgium

Now
79 °F

Sunny.


Feels Like: 79 °F
Forecast: 64 / 89 °F
Wind: 6 mph from East

Location: Brussels National Airport

Current Time: Aug 2, 2015 at 8:30:16 PM

Latest Report: Aug 2, 2015 at 7:50 PM


Visibility: 10 mi

Pressure: 30.01 "Hg

Humidity: 34%

Dew point: 48 °F

Location of MechelenLocation

Historic Weather in Mechelen — Graph

°F

Mechelen temperature yesterday

Maximum temperature yesterday: 73 °F (at 2:20 PM)
Minimum temperature yesterday: 46 °F (at 6:20 AM)
Average temperature yesterday: 62 °F

Past Weeks' High & Low Weather Summary

 TemperatureHumidityPressure
High81 °F (Aug 2, 3:50 PM)100% (Jul 25, 1:20 PM)30.15 "Hg (Jul 25, 1:20 PM)
Low43 °F (Jul 31, 4:50 AM)26% (Aug 2, 4:20 PM)29.50 "Hg (Jul 25, 3:50 AM)
Average63 °F69%29.91 "Hg
* Reported Jul 18 7:50 PM — Aug 2 7:20 PM, Mechelen, Weather by CustomWeather, © 2015

Note: Actual official high and low records may vary slightly from our data, if they occured in-between our weather recording intervals... More about our weather records

Advertising

Mechelen weather history for previous 24 hours

 ConditionsComfort  
Time TempWeatherWind HumidityBarometerVisibility
7:20 PM
Sun, Aug 2
81 °FPassing clouds.6 mph26%30.01 "HgN/A
6:50 PM81 °FPassing clouds.7 mph26%30.04 "HgN/A
6:20 PM81 °FPassing clouds.7 mph26%30.04 "HgN/A
5:50 PM81 °FPassing clouds.6 mph28%30.07 "HgN/A
5:20 PM81 °FPassing clouds.5 mph28%30.07 "HgN/A
4:50 PM81 °FPassing clouds.5 mph26%30.07 "HgN/A
4:20 PM81 °FSunny.5 mph26%30.07 "Hg10 mi
3:50 PM81 °FSunny.3 mph28%30.09 "Hg10 mi
3:20 PM79 °FPassing clouds.5 mph28%30.09 "HgN/A
2:50 PM79 °FSunny.2 mph30%30.09 "Hg10 mi
2:20 PM79 °FPassing clouds.5 mph30%30.09 "HgN/A
1:50 PM77 °FPassing clouds.6 mph34%30.12 "HgN/A
1:20 PM75 °FPassing clouds.5 mph34%30.12 "HgN/A
12:50 PM75 °FPassing clouds.7 mph34%30.12 "HgN/A
12:20 PM73 °FPassing clouds.3 mph33%30.12 "HgN/A
11:50 AM73 °FPassing clouds.5 mph44%30.12 "HgN/A
11:20 AM72 °FPassing clouds.5 mph47%30.12 "HgN/A
10:50 AM70 °FPassing clouds.5 mph50%30.15 "HgN/A
10:20 AM68 °FSunny.2 mph56%30.15 "Hg10 mi
9:50 AM64 °FSunny.2 mph60%30.15 "Hg10 mi
9:20 AM63 °FSunny.2 mph59%30.15 "Hg10 mi
8:50 AM61 °FSunny.1 mph63%30.12 "Hg10 mi
8:20 AM61 °FSunny.No wind68%30.12 "Hg10 mi
7:50 AM55 °FSunny.1 mph88%30.12 "Hg10 mi
7:20 AM54 °FSunny.1 mph82%30.12 "Hg10 mi
6:50 AM50 °FClear.1 mph88%30.12 "Hg10 mi
6:20 AM50 °FClear.2 mph88%30.09 "Hg10 mi
5:50 AM50 °FClear.2 mph88%30.09 "Hg10 mi
5:20 AM48 °FClear.2 mph94%30.09 "Hg10 mi
4:50 AM50 °FClear.2 mph94%30.09 "Hg10 mi
4:20 AM50 °FClear.2 mph88%30.09 "Hg10 mi
3:50 AM50 °FClear.1 mph88%30.09 "Hg10 mi
3:20 AM52 °FClear.1 mph88%30.09 "Hg10 mi
2:50 AM54 °FClear.5 mph82%30.09 "Hg10 mi
2:20 AM52 °FClear.No wind82%30.09 "Hg10 mi
1:50 AM50 °FClear.1 mph88%30.09 "Hg10 mi
1:20 AM54 °FClear.1 mph82%30.09 "Hg10 mi
12:50 AM55 °FClear.No wind77%30.09 "Hg10 mi
11:50 PM
Sat, Aug 1
54 °FClear.No wind77%30.09 "Hg10 mi
11:20 PM59 °FClear.1 mph68%30.07 "Hg10 mi
10:50 PM59 °FClear.2 mph68%30.07 "Hg10 mi
10:20 PM61 °FSunny.3 mph63%30.07 "Hg10 mi
9:50 PM63 °FSunny.6 mph59%30.07 "Hg10 mi
9:20 PM64 °FSunny.7 mph56%30.07 "Hg10 mi
8:50 PM68 °FSunny.8 mph49%30.04 "Hg10 mi
8:20 PM70 °FSunny.9 mph46%30.04 "Hg10 mi
Weather by CustomWeather, © 2015

See weather overviewHow to use our weather pages